Flag for Namibia Weather past 2 weeks in Walvis Bay, Namibia

Now
52 °F

Cool.


Feels Like: 50 °F
Forecast: 57 / 68 °F
Wind: 6 mph from South

Location: Walvis Bay

Current Time: Sep 18, 2014 at 12:19:16 AM

Latest Report: Sep 18, 2014 at 12:00 AM


Visibility: N/A

Pressure: 30.09 "Hg

Humidity: 88%

Dew point: 48 °F

Location of Walvis BayLocation

Historic Weather in Walvis Bay — Graph

°F

Walvis Bay temperature yesterday

Maximum temperature yesterday: 64 °F (at 3:00 PM)
Minimum temperature yesterday: 54 °F (at 10:00 PM)
Average temperature yesterday: 58 °F

Past Weeks' High & Low Weather Summary

 TemperatureHumidityPressure
High100 °F (Sep 7, 6:00 PM)100% (Sep 4, 8:00 AM)30.15 "Hg (Sep 4, 8:00 AM)
Low45 °F (Sep 8, 6:00 AM)9% (Sep 7, 6:00 PM)29.89 "Hg (Sep 15, 7:00 AM)
Average59 °F76%30.03 "Hg
* Reported Sep 3 10:00 AM — Sep 17 11:00 PM, Walvis Bay, Weather by CustomWeather, © 2014

Note: Actual official high and low records may vary slightly from our data, if they occured in-between our weather recording intervals... More about our weather records

Advertising

Walvis Bay weather history for previous 24 hours

 ConditionsComfort  
Time TempWeatherWind HumidityBarometerVisibility
11:00 PM
Sep 17
54 °FCool.7 mph88%30.09 "HgN/A
10:00 PM54 °FCool.8 mph88%30.09 "HgN/A
9:00 PM55 °FCool.5 mph82%30.07 "HgN/A
8:00 PM57 °FCool.6 mph82%30.07 "HgN/A
7:00 PM61 °FPassing clouds.5 mph72%30.04 "HgN/A
6:00 PM61 °FOvercast.9 mph77%30.01 "HgN/A
5:00 PM61 °FOvercast.10 mph77%30.01 "HgN/A
4:00 PM63 °FOvercast.12 mph73%30.01 "HgN/A
3:00 PM64 °FMild.8 mph68%30.01 "HgN/A
1:00 PM59 °FOvercast.8 mph82%30.01 "HgN/A
12:00 PM59 °FOvercast.8 mph82%30.07 "HgN/A
11:00 AM59 °FOvercast.6 mph82%30.07 "HgN/A
10:00 AM59 °FLow clouds.6 mph88%30.07 "HgN/A
9:00 AM57 °FLow clouds.7 mph94%30.07 "HgN/A
8:00 AM57 °FLow clouds.8 mph94%30.04 "HgN/A
7:00 AM57 °FLow clouds.6 mph94%30.04 "HgN/A
6:00 AM57 °FLow clouds.7 mph94%30.01 "HgN/A
4:00 AM57 °FCool.7 mph94%30.01 "HgN/A
3:00 AM57 °FCool.10 mph94%30.01 "HgN/A
2:00 AM57 °FCool.8 mph94%30.01 "HgN/A
1:00 AM57 °FCool.9 mph88%30.01 "HgN/A
12:00 AM57 °FCool.9 mph88%30.04 "HgN/A
Weather by CustomWeather, © 2014

See weather overviewHow to use our weather pages